Volver al catálogo

DMSP 5D-2 F14 DEB

ActivoSSO
NORAD 63154·DEBRIS·🇺🇸 United States

Lanzado Apr 4, 1997 desde Vandenberg Space Force Base

Loading…

Próximos Pases (próximas 24 horas)

TLE

ActualizadoSource: Space-Track

Época: Sep 13, 2026, 14:20 UTC

1 63154U 97012U   26256.59734735  .00001914  00000-0  79305-3 0  9994
2 63154  98.7657 312.3317 0036739 154.3528 205.9484 14.27398792 81754

Sigue DMSP 5D-2 F14 DEB en tiempo real con AllMySat

Download on the App Store